SCP
9 9 7 4 4 4 4 4 5 6 9 11 12 11 9 8 7 7 7 7 7 7 7 7 7 6 5 5 5 4 4 3 3 2 2 2 2 3 3 3 2 2 2
9 10 8 5 4 4 5 5 5 7 9 10 10 9 8 7 7 7 7 7 7 7 7 7 7 7 7 6 6 5 5 4 4 3 2 2 3 3 3 3 2 2 2
8 9 8 6 5 4 5 5 6 7 8 8 8 7 6 6 6 7 6 6 6 6 6 6 7 7 7 6 6 5 5 4 4 3 3 3 3 3 3 3 2 2 2
6 7 7 6 5 4 5 5 6 7 8 7 7 6 6 5 5 5 5 5 5 5 5 5 5 5 5 5 5 5 4 4 3 3 3 3 3 3 3 3 2 2 2
6 6 6 6 4 3 4 4 5 6 7 8 8 8 7 5 4 4 4 4 4 4 4 4 3 3 3 3 3 3 3 3 3 3 3 3 3 3 3 3 2 2 2
6 6 6 5 3 2 3 3 4 4 5 6 7 7 6 4 2 2 3 4 4 4 4 3 2 2 2 2 2 2 2 2 2 2 2 2 2 3 3 3 2 2 2
5 5 4 3 2 2 2 3 3 3 3 3 3 4 3 2 1 1 2 3 4 3 2 2 1 1 1 1 1 1 1 1 1 1 1 2 2 2 2 2 2 1 1
3 3 2 2 2 2 2 3 3 3 2 2 2 2 2 2 1 0 1 2 2 2 1 1 1 1 1 1 1 1 1 0 0 0 1 1 1 1 1 1 1 1 1
1 1 1 2 2 3 3 2 2 2 2 2 2 2 2 2 1 1 0 1 1 1 1 1 1 1 1 0 1 1 1 1 1 0 0 0 1 1 1 1 0 0 0
1 1 1 2 3 3 2 2 2 2 2 2 2 2 2 2 2 1 0 0 1 1 2 2 1 1 1 0 0 1 1 1 1 1 1 0 0 0 0 0 0 0 0
1 1 2 3 3 2 2 2 2 1 1 2 2 2 2 2 2 1 0 0 1 2 2 2 1 1 0 0 0 1 1 1 1 1 1 1 1 0 0 1 1 1 0
1 2 2 3 2 2 2 2 1 1 1 1 2 2 2 1 1 1 0 0 1 1 1 1 1 0 0 0 0 0 0 1 1 2 2 2 1 1 1 1 1 1 1
1 2 2 2 2 2 2 2 1 1 1 1 1 1 1 1 1 0 0 0 0 1 1 1 0 0 0 0 0 0 0 0 1 2 2 2 2 2 1 1 1 1 1
1 1 2 2 2 2 2 2 1 1 0 0 0 0 0 0 0 0 0 0 0 0 0 0 0 0 0 0 1 1 1 1 1 2 3 2 2 2 1 1 1 0 0
1 2 2 2 2 2 2 1 1 0 0 0 0 0 0 0 0 0 0 0 0 0 0 0 0 1 1 1 1 2 2 2 2 2 2 2 2 1 1 1 1 0 0
2 2 2 2 2 1 1 1 0 0 0 0 0 0 0 0 0 0 0 0 0 0 0 0 0 1 1 1 2 2 2 2 2 2 2 2 2 1 1 1 1 0 0
3 3 2 2 1 1 1 0 0 0 0 0 0 0 0 0 0 0 0 0 0 0 0 0 0 1 1 1 1 1 1 1 2 2 1 1 1 1 1 1 0 0 0
3 2 2 2 1 1 0 0 0 0 0 0 0 0 0 0 0 0 0 0 0 0 0 1 1 1 1 0 1 1 1 1 1 1 1 1 1 0 0 0 0 0 0
2 2 1 1 1 0 0 0 0 0 0 0 0 0 0 0 0 0 0 0 0 1 1 1 1 1 1 1 1 1 1 1 1 0 0 0 0 0 0 0 0 0 0
1 1 1 0 0 0 0 0 0 0 0 0 0 0 0 0 0 0 0 1 1 1 1 1 1 1 1 1 0 0 0 1 1 0 0 0 0 0 0 0 0 0 0
1 1 0 0 0 0 0 0 0 0 0 0 0 0 0 0 0 1 1 1 1 1 1 1 1 1 0 0 0 0 0 0 0 0 0 0 0 0 0 0 0 0 0
1 1 0 0 0 0 0 0 0 0 0 0 0 0 0 0 1 1 1 1 1 1 1 0 0 0 0 0 0 0 0 0 0 0 0 0 0 0 0 0 0 0 0
0 0 0 0 0 0 0 0 0 0 0 0 0 0 0 0 1 1 1 1 1 1 1 0 0 0 1 1 0 0 0 0 1 0 0 0 0 0 0 0 0 0 0
0 0 0 0 0 0 0 0 0 0 0 0 0 0 0 1 1 1 1 1 1 0 0 0 0 0 1 1 0 0 0 0 0 0 0 0 0 0 0 0 0 0 0
0 0 0 1 1 0 0 0 0 0 0 0 0 0 0 1 1 1 1 1 1 0 0 0 0 0 0 0 0 0 0 0 0 0 0 0 0 0 0 0 0 0 0
0 0 0 1 1 0 0 0 0 0 0 0 0 0 1 1 1 1 1 1 1 0 0 0 0 0 0 0 0 0 0 0 0 0 0 0 0 0 0 0 0 0 0
Wind_Speed
0 0 1 1 1 0 0 0 1 2 2 3 2 2 3 2 2 2 3 3 3 3 3 3 3 3 3 3 2 2 2 2 4 4 3 3 3 3 2 3 3 4 5
1 1 1 1 1 1 1 1 2 2 3 3 2 2 2 2 2 2 3 3 3 3 3 3 3 3 3 2 2 3 2 3 3 4 4 4 4 3 3 3 4 4 4
1 1 1 1 1 1 1 1 2 2 2 2 2 2 2 1 1 2 3 3 3 3 3 3 3 3 3 3 3 3 3 3 3 4 4 3 3 3 3 4 5 3 5
2 1 1 1 0 1 1 1 1 1 1 2 2 1 2 1 2 3 3 3 3 3 3 3 4 3 3 3 3 3 3 3 3 3 4 4 3 3 2 3 4 3 4
2 2 1 1 0 1 1 1 1 1 1 1 0 1 1 1 2 3 4 4 3 3 4 3 3 3 3 2 3 2 3 3 3 3 4 3 3 2 3 2 4 4 4
2 2 2 1 1 1 1 1 1 1 1 1 1 1 1 2 2 3 3 4 3 3 3 3 3 2 2 4 5 6 6 5 4 4 4 4 4 3 3 3 3 3 4
2 2 1 1 2 2 2 2 2 2 1 1 1 1 1 2 2 3 3 3 3 3 3 3 4 4 3 2 4 5 6 7 6 4 5 5 4 4 3 4 4 5 5
2 2 2 2 2 2 2 2 2 1 1 1 1 1 1 1 2 3 4 3 3 3 3 3 2 1 3 3 4 3 3 4 5 4 4 5 5 4 4 4 5 5 5
2 2 2 2 2 2 2 2 1 1 1 1 1 1 1 1 1 2 3 2 2 3 3 2 1 1 1 3 3 3 4 5 6 6 6 6 7 8 5 3 4 4 4
2 2 2 2 2 2 2 2 1 1 2 2 1 1 0 0 1 1 2 2 3 3 2 1 1 1 2 3 2 3 4 5 5 5 4 5 6 7 7 5 4 3 4
2 2 2 2 2 1 1 2 2 2 2 2 2 1 0 0 0 1 1 1 3 3 3 1 1 1 2 4 4 3 5 5 5 5 4 4 4 3 3 3 3 3 4
2 2 2 2 2 1 1 1 1 2 3 3 2 2 0 0 0 2 2 3 4 3 3 2 2 2 4 6 4 5 6 5 4 4 3 3 3 3 3 2 3 3 4
2 2 2 3 2 1 1 1 1 2 2 2 2 1 1 1 1 2 3 4 5 3 3 5 6 6 6 4 5 6 5 3 3 3 3 3 3 3 2 2 2 3 3
2 2 2 3 2 2 2 1 1 2 2 3 3 2 1 1 2 2 2 2 3 3 4 5 6 6 5 4 4 3 3 3 3 3 3 3 3 3 2 2 2 2 2
2 2 3 3 2 1 1 1 1 1 1 1 2 3 3 2 2 3 3 3 3 3 4 3 3 2 2 2 2 2 2 2 2 3 3 3 3 3 2 2 2 2 2
2 3 3 3 2 2 2 1 0 1 1 1 1 2 1 2 4 5 5 5 5 4 2 3 3 3 3 3 3 3 2 2 2 2 2 3 3 3 2 2 1 1 2
3 3 3 3 3 3 2 2 2 2 3 3 4 4 4 4 5 6 6 6 6 3 1 3 3 3 2 3 3 3 3 3 2 3 3 3 3 3 3 2 2 2 2
4 3 4 4 3 3 3 3 2 2 2 3 4 6 6 6 6 6 5 4 3 2 2 2 2 2 3 3 3 3 3 2 2 3 3 3 3 3 3 3 3 3 3
4 3 3 4 3 3 3 4 3 2 2 1 1 2 5 5 5 5 3 2 2 3 3 3 2 2 3 2 2 3 3 3 3 3 3 3 3 3 3 3 3 4 3
2 4 4 4 4 4 4 4 3 3 2 2 1 1 0 1 1 1 1 1 2 2 3 3 2 2 3 3 3 3 3 3 3 3 3 3 3 3 3 3 3 3 3
3 3 5 5 4 4 4 4 3 3 3 3 1 1 1 1 1 2 2 1 1 2 2 2 2 3 3 3 3 4 4 4 4 4 4 3 3 3 3 3 3 3 3
4 3 3 3 3 3 3 3 3 3 3 3 1 1 2 1 1 1 2 2 1 1 1 2 2 3 3 3 3 3 4 4 4 4 4 4 3 3 3 2 2 3 3
5 4 3 2 2 2 3 3 3 3 3 3 3 2 1 1 1 2 2 2 2 2 2 1 2 3 3 3 3 3 3 4 4 5 4 4 3 3 3 2 3 3 3
5 4 4 3 2 3 3 3 3 3 3 3 3 3 2 1 1 2 2 2 2 2 2 2 2 3 5 4 3 3 3 4 5 4 5 4 4 4 3 3 3 3 3
5 5 4 3 2 3 3 3 3 3 2 2 2 2 3 2 2 2 1 2 2 3 3 3 2 3 5 6 5 4 4 4 3 4 4 3 3 4 4 4 3 3 3
5 5 3 3 2 2 3 2 3 3 2 2 2 2 2 2 2 2 2 2 2 2 2 2 3 4 5 4 6 5 4 4 5 5 4 3 2 2 3 3 4 3 3
Wind_Direction
52 89 37 39 347 313 257 298 276 257 244 240 233 232 237 238 244 244 250 252 250 251 254 252 257 273 277 276 273 268 264 264 272 286 293 293 281 279 271 252 242 232 224
80 89 57 21 348 340 328 290 279 261 243 240 237 235 243 243 247 256 259 257 260 261 263 267 265 265 263 277 284 281 274 264 259 278 285 281 275 266 256 261 263 255 243
32 67 50 345 0 328 322 306 294 272 251 249 245 245 261 263 275 275 268 261 264 268 270 272 273 268 262 268 271 277 276 286 270 268 276 274 271 274 279 281 282 275 267
9 32 0 338 337 331 330 310 298 289 273 260 237 249 266 270 298 297 290 282 278 279 279 277 275 270 266 274 276 281 285 289 284 277 272 272 268 267 267 276 284 273 271
350 1 10 359 329 353 337 316 308 295 306 294 227 268 287 284 311 310 301 288 290 293 292 288 281 281 282 273 284 295 295 286 284 280 278 280 277 288 281 277 279 277 271
348 12 30 11 348 341 347 351 5 8 6 9 18 7 340 335 8 2 332 309 304 303 303 297 290 277 288 269 272 275 271 268 274 274 278 283 285 286 286 288 288 284 281
353 14 38 18 13 8 12 39 29 21 20 19 356 354 10 27 4 356 341 309 300 304 303 302 303 324 3 322 287 269 267 263 252 263 275 279 284 283 286 286 282 279 276
8 20 28 25 16 7 29 33 15 1 357 348 328 326 344 26 9 347 331 301 298 303 299 294 286 316 319 324 308 298 281 277 261 253 261 267 274 272 261 264 269 275 271
5 12 10 9 8 14 24 14 360 343 323 297 311 334 348 45 315 317 320 295 299 303 301 311 300 276 305 319 308 307 308 303 294 279 265 264 266 267 264 274 273 273 279
348 350 2 4 357 11 14 359 346 319 310 304 328 304 286 36 299 303 318 307 310 305 298 296 351 325 321 326 310 305 300 301 310 304 286 274 265 259 246 234 249 265 274
331 348 350 342 347 25 9 358 351 327 321 315 318 305 307 96 234 294 270 298 310 309 314 328 340 335 294 287 284 281 281 295 302 295 289 283 275 269 251 226 224 232 252
325 339 332 323 318 355 356 343 346 335 307 290 277 278 266 133 315 280 249 249 286 309 316 323 315 303 294 285 281 279 288 299 294 296 297 296 294 290 284 260 240 237 240
335 326 318 309 303 302 279 289 284 279 292 304 293 288 337 11 358 310 274 266 275 279 300 310 305 289 287 279 265 272 281 283 284 289 295 292 288 287 288 282 272 257 253
300 301 296 289 278 284 283 272 294 328 328 335 339 337 355 1 357 338 316 284 282 286 296 299 291 286 280 280 286 277 258 264 271 280 286 286 287 289 290 290 289 281 280
289 284 276 266 275 277 296 327 330 342 326 318 341 341 340 341 321 316 326 324 322 328 313 299 289 294 295 295 303 297 283 286 293 298 301 308 311 310 302 289 281 293 298
279 280 277 270 264 251 234 218 12 218 212 195 227 284 297 276 288 301 308 311 310 312 311 298 311 326 328 329 327 324 329 331 322 314 315 320 319 314 311 307 302 310 307
268 269 276 278 270 267 268 252 212 218 238 246 245 255 260 279 291 296 300 311 310 309 308 313 321 326 331 332 328 329 331 334 328 319 316 321 324 326 328 328 334 339 333
279 276 280 278 275 280 282 273 255 234 213 219 231 237 244 259 274 286 303 326 329 350 328 314 324 334 330 335 336 336 335 336 337 333 338 340 344 342 338 340 342 342 333
285 287 289 294 292 288 283 281 284 289 296 254 201 214 228 243 255 272 278 297 323 334 332 329 338 341 337 342 339 340 342 355 0 351 352 351 347 338 334 333 333 335 326
261 275 284 292 298 298 296 299 311 321 321 321 332 348 318 286 301 318 238 256 300 312 319 328 336 335 338 345 348 350 351 359 358 348 345 340 333 331 328 324 324 329 328
271 260 269 285 300 309 317 319 319 315 317 326 352 4 294 305 323 338 344 336 307 302 310 323 339 346 350 353 355 354 353 354 354 345 338 331 326 324 325 329 332 334 335
291 285 283 293 303 311 310 307 307 307 314 314 313 220 206 249 327 343 342 351 6 350 355 356 356 1 357 350 356 358 360 352 343 337 334 328 324 323 324 325 331 332 328
281 282 280 282 283 279 288 304 310 314 315 318 322 326 330 333 350 350 351 12 25 16 10 21 18 9 6 359 1 11 7 350 332 325 323 320 324 325 325 328 331 331 333
285 289 292 294 291 299 304 306 305 313 326 330 333 333 341 348 346 350 3 25 29 24 31 33 25 13 12 8 6 13 8 345 331 324 323 316 320 322 326 332 332 339 345
284 285 290 294 296 300 303 308 312 320 323 329 327 327 334 341 350 356 12 24 32 41 32 26 22 23 22 12 5 360 351 339 336 328 317 313 326 335 340 345 339 344 357
288 289 294 293 289 297 301 306 315 320 326 330 326 332 337 338 353 4 23 35 34 40 29 28 27 28 19 9 7 2 344 337 333 326 314 312 330 350 342 338 339 342 347